Lid_Strength_Index
6 6 6 5 4 3 2 2 3 3 2 2 2 2 1 2 2 3 3 4 5 5 6 5 5 6 5 6 7 7 8 8 9 12 11 12 12 13 12 12 11 12 13
9 9 8 7 6 5 4 4 4 3 4 3 3 3 3 4 3 3 4 6 5 7 7 7 7 8 8 8 8 9 9 10 10 12 13 13 13 13 12 13 12 12 14
9 9 9 9 8 7 7 7 6 5 5 5 5 4 5 5 6 6 6 7 6 7 8 7 8 8 10 10 11 11 11 11 11 13 13 13 14 13 14 13 14 14 13
9 9 10 10 9 9 9 8 6 6 5 6 6 6 6 7 8 9 8 8 8 8 8 8 9 9 10 11 11 12 12 12 13 14 14 14 14 14 14 14 15 15 16
9 10 10 10 10 10 10 10 9 8 7 7 7 7 8 8 9 9 10 9 10 10 11 10 10 12 12 10 11 12 12 13 14 14 15 15 15 15 14 15 15 15 16
10 10 10 10 10 10 10 10 11 11 10 9 9 9 10 11 9 9 9 10 11 11 13 13 13 13 12 10 10 11 12 14 14 14 15 14 14 14 14 15 15 17 19
10 11 11 12 12 12 11 11 11 11 10 10 11 11 11 10 9 9 10 12 12 12 13 13 14 13 12 12 11 11 11 11 12 13 14 14 14 14 14 15 16 16 17
12 12 13 12 12 12 12 11 12 12 11 12 12 11 11 11 9 10 12 12 13 13 13 13 13 13 13 13 13 13 13 13 12 13 13 13 13 13 14 14 15 17 18
13 13 13 11 12 12 12 12 12 13 13 13 13 13 13 13 11 11 12 13 13 13 13 13 13 13 12 11 13 14 14 14 12 11 12 12 11 12 13 17 21 21 22
13 13 13 11 12 12 12 13 13 13 13 13 13 13 13 13 10 11 12 13 13 14 14 14 14 13 11 11 14 14 15 14 14 15 13 12 12 13 11 14 17 22 24
14 14 14 13 12 12 13 13 13 13 13 13 13 13 13 13 12 11 11 13 13 14 14 14 14 12 11 11 12 13 14 14 13 14 15 16 16 16 16 15 15 18 22
15 15 17 16 13 13 13 13 13 13 13 13 13 14 14 14 12 11 11 12 12 13 14 15 14 12 11 11 11 12 12 12 17 18 19 17 17 17 17 17 17 17 17
17 17 19 18 14 13 13 13 13 13 13 14 14 14 14 14 13 11 11 11 11 14 14 14 12 11 11 11 11 11 13 17 18 20 18 17 18 17 19 21 22 22 20
17 18 19 18 18 16 15 14 13 13 14 14 14 14 14 15 14 14 16 16 13 13 13 13 13 12 12 13 16 13 13 15 17 17 17 18 20 21 21 20 21 22 23
18 18 18 18 18 19 18 17 16 16 14 15 16 17 17 20 17 14 15 17 16 15 19 18 17 19 19 18 19 20 17 16 17 19 19 20 21 20 20 21 22 25 22
18 19 19 19 19 19 19 19 14 13 12 12 12 16 18 14 12 12 11 11 11 12 20 23 22 17 16 17 16 18 20 20 18 18 17 18 18 18 18 21 20 20 19
19 20 20 20 20 20 22 21 21 19 14 13 13 13 13 13 13 12 12 11 11 11 14 14 15 16 15 16 18 21 18 20 18 18 17 17 18 18 18 18 18 18 19
21 21 21 22 22 22 23 23 23 23 23 23 17 15 14 13 13 13 13 14 16 13 13 14 14 14 15 16 18 18 17 17 17 16 17 17 17 18 19 19 18 18 18
21 22 22 23 24 23 23 24 25 26 26 26 25 18 21 15 14 14 13 23 22 15 15 15 14 14 14 14 15 15 15 15 16 17 17 17 17 18 18 17 17 17 17
23 23 23 23 23 22 23 24 24 26 26 28 27 27 25 23 25 26 27 26 18 17 16 15 15 14 14 14 15 15 15 16 17 18 17 17 17 17 17 16 17 17 17
23 24 24 24 25 26 27 27 29 28 30 31 30 27 17 27 29 26 20 20 22 23 21 19 19 18 17 18 17 17 19 17 18 18 18 17 17 17 17 16 16 16 16
25 25 26 27 27 27 30 30 31 31 33 32 32 31 21 32 33 34 33 32 31 30 28 27 26 24 24 20 19 19 19 20 21 19 18 17 17 17 17 16 17 16 16
25 25 27 30 30 30 31 34 33 34 34 36 35 34 34 35 35 33 33 32 31 30 29 30 30 28 26 25 23 21 21 20 19 19 17 18 18 17 17 16 16 16 16
26 26 27 30 30 33 33 35 35 33 35 35 36 36 33 34 35 34 34 32 32 31 31 30 30 29 28 28 27 25 23 22 21 18 17 16 16 17 16 16 16 16 16
30 29 29 30 31 31 33 34 34 36 36 33 33 34 34 33 33 31 31 31 30 30 29 29 30 30 29 26 25 24 23 20 22 20 17 17 17 19 19 17 16 17 17
31 30 30 31 32 34 34 34 34 35 35 32 32 35 35 34 33 33 32 32 31 30 28 30 29 27 26 26 25 20 18 14 16 17 19 21 22 22 22 20 19 19 20